Other Public Products
Issued by NWS Charleston, SC

Current Version | Previous Version | Text Only | Print | Product List | Glossary Off
Versions: 1 2 3 4 5 6 7 8 9 10 11 12 13 14 15 16 17 18 19 20 21 22 23 24 25 26 27 28 29 30 31 32 33 34 35 36 37 38 39 40 41 42 43 44 45 46 47 48 49 50

000
FPUS82 KCHS 251727
OPUCHS

TEST...KCHS/KSAV Gateway Observations...TEST
National Weather Service Charleston SC
100 PM EDT TUE JUL 25 2017

NOTE: "fair" indicates few or no clouds below 12,000 feet with no
significant weather and/or obstructions to visibility.

SCZ050-WAZ558-NCZ071-TXZ119-213-PAZ071-DCZ001-FLZ074-172-MI076-
NYZ176-178-MAZ016-IL014-TNZ027-NJZ106-GAZ044-MD014-251800-

...Gateway Observations for Charleston International...

CITY           SKY/WX    TMP DP  RH WIND       PRES   REMARKS
Chas Airport   CLOUDY    92  74  55 W6        30.05F HX 101
Seattle        MOSUNNY   70  53  54 W6        30.05S
Charlotte      PTSUNNY   93  69  45 CALM      30.09F HX  98
Dallas DFW     MOSUNNY   89  75  63 S10       30.06F HX  99
Dallas Love    MOSUNNY   90  74  59 S9G17     30.07F HX  99
Philladelphia  PTSUNNY   77  63  61 E7        30.09R
Wash National  CLOUDY    79  62  56 NW10      30.12R
Baltimore      PTSUNNY   76  62  62 VRB7      30.10R
Miami          PTSUNNY   93  76  57 SE10      30.12F THUNDER HX 105
Detroit        MOSUNNY   77  53  43 VRB3      30.23S
Newark         CLOUDY    68  60  75 NE6       30.10S
Laguardia      CLOUDY    66  60  81 NE12      30.11R
J F K          CLOUDY    69  62  78 NE9       30.11R
Boston Logan   CLOUDY    62  56  80 NE6       30.13R
Ft. Lauderdale PTSUNNY   91  77  63 SE10      30.12F HX 104
Chicago O`Hare MOSUNNY   78  56  46 SE9       30.20S
Chicago Midway MOSUNNY   78  57  48 S7        30.21R
Houston Bush   PTSUNNY   90  74  59 S8        30.11F HX  99
Houston Hobby  CLOUDY    91  74  57 S12       30.10F HX 100
Nashville      MOSUNNY   93  70  46 NE7       30.10F HX  99
Atlanta        CLOUDY    86  73  65 NW6       30.11F HX  93

$$

GAZ044-118-TXZ119-213-NCZ071-DCZ001-MDZ014-506-PAZ021-071-NJZ106-
NYZ176-178-MAZ106-OHZ011-021-055-MIZ076-KYZ091-ILZ014-INZ047-
MNZ060-ONZ431-251800-

...Gateway Observations for Savannah International...

CITY           SKY/WX    TMP DP  RH WIND       PRES   REMARKS
Savannah Arpt  PTSUNNY   88  73  61 W7        30.08S HX  95
Atlanta        CLOUDY    86  73  65 NW6       30.11F HX  93
Charlotte      PTSUNNY   93  69  45 CALM      30.09F HX  98
Dallas DFW     MOSUNNY   89  75  63 S10       30.06F HX  99
Houston Bush   PTSUNNY   90  74  59 S8        30.11F HX  99
Wash National  CLOUDY    79  62  56 NW10      30.12R
Wash Dulles    PTSUNNY   75  59  57 NW12      30.13R
Baltimore      PTSUNNY   76  62  62 VRB7      30.10R
Philadelphia   PTSUNNY   77  63  61 E7        30.09R
Newark         CLOUDY    68  60  75 NE6       30.10S
Laguardia      CLOUDY    66  60  81 NE12      30.11R
J F K          CLOUDY    69  62  78 NE9       30.11R
Boston         CLOUDY    62  56  80 NE6       30.13R
Pittsburg      CLOUDY    68  58  70 NW7       30.20S
Akron          CLOUDY    71  58  63 N9        30.22R
Cleveland      CLOUDY    72  60  66 N8        30.24R
Cincinnati     MOSUNNY   77  57  50 E10       30.19S
Columbus       CLOUDY    70  58  65 CALM      30.22R
Detroit        MOSUNNY   77  53  43 VRB3      30.23S
Chicago O`Hare MOSUNNY   78  56  46 SE9       30.20S
Minneapolis    CLOUDY    79  64  60 S20G30    29.99S
Indianapolis   MOSUNNY   77  56  48 E12       30.19S
Toronto Canada PTSUNNY   72  54  53 NE9       30.20S

$$




USA.gov is the U.S. government's official web portal to all federal, state and local government web resources and services.